| time (UTC) | temp F | wind direction | speed knots | gust knots | rain 1hr in | rain 24hr in | rain mn in | humidity % | barometer mb |
| 20260503033051 | 55 | 327 | 0.9 | 1.7 | 0.00 | 0.00 | 0.00 | 42 | 1015.7 |
| 20260503031539 | 54 | 338 | 0.9 | 1.7 | 0.00 | 0.00 | 0.00 | 43 | 1015.6 |
| 20260503030039 | 54 | 335 | 0.9 | 1.7 | 0.00 | 0.00 | 0.00 | 41 | 1015.4 |
| 20260503024545 | 59 | 31 | 0.0 | 1.7 | 0.00 | 0.00 | 0.00 | 35 | 1015.2 |
| 20260503023044 | 59 | 68 | 0.0 | 0.0 | 0.00 | 0.00 | 0.00 | 35 | 1015.2 |
| 20260503021536 | 59 | 68 | 0.0 | 1.7 | 0.00 | 0.00 | 0.00 | 36 | 1015.1 |
| 20260503020036 | 60 | 349 | 1.7 | 3.5 | 0.00 | 0.00 | 0.00 | 35 | 1015.1 |
| 20260503014535 | 60 | 357 | 2.6 | 3.5 | 0.00 | 0.00 | 0.00 | 33 | 1015.1 |
| 20260503013036 | 63 | 354 | 0.0 | 4.3 | 0.00 | 0.00 | 0.00 | 32 | 1015.2 |
| 20260503011534 | 64 | 342 | 2.6 | 12.2 | 0.00 | 0.00 | 0.00 | 30 | 1015.2 |
| 20260503010034 | 63 | 39 | 1.7 | 4.3 | 0.00 | 0.00 | 0.00 | 32 | 1015.2 |
| 20260503004537 | 64 | 106 | 0.0 | 0.9 | 0.00 | 0.00 | 0.00 | 31 | 1015.5 |
| 20260503003038 | 64 | 136 | 0.0 | 1.7 | 0.00 | 0.00 | 0.00 | 31 | 1015.6 |
| 20260503001532 | 63 | 311 | 1.7 | 4.3 | 0.00 | 0.00 | 0.00 | 31 | 1015.7 |
| 20260503000032 | 64 | 333 | 1.7 | 4.3 | 0.00 | 0.00 | 0.00 | 30 | 1015.8 |
| 20260502234535 | 64 | 4 | 2.6 | 6.1 | 0.00 | 0.00 | 0.00 | 31 | 1016.0 |
| 20260502233030 | 65 | 51 | 2.6 | 7.8 | 0.00 | 0.00 | 0.00 | 29 | 1016.0 |
| 20260502231530 | 66 | 26 | 1.7 | 7.0 | 0.00 | 0.00 | 0.00 | 29 | 1016.1 |
| 20260502230130 | 66 | 58 | 2.6 | 7.0 | 0.00 | 0.00 | 0.00 | 29 | 1016.3 |
| 20260502224526 | 67 | 129 | 1.7 | 5.2 | 0.00 | 0.00 | 0.00 | 29 | 1016.5 |
| 20260502223124 | 64 | 79 | 2.6 | 8.7 | 0.00 | 0.00 | 0.00 | 31 | 1016.7 |
| 20260502221522 | 65 | 240 | 0.0 | 7.8 | 0.00 | 0.00 | 0.00 | 30 | 1016.9 |
| 20260502220024 | 65 | 190 | 2.6 | 7.8 | 0.00 | 0.00 | 0.00 | 31 | 1017.0 |
| 20260502214521 | 65 | 294 | 1.7 | 7.0 | 0.00 | 0.00 | 0.00 | 31 | 1017.3 |
| 20260502213034 | 64 | 233 | 0.9 | 3.5 | 0.00 | 0.00 | 0.00 | 32 | 1017.5 |
| 20260502211521 | 63 | 35 | 0.9 | 5.2 | 0.00 | 0.00 | 0.00 | 33 | 1017.6 |
| 20260502210017 | 63 | 68 | 2.6 | 6.1 | 0.00 | 0.00 | 0.00 | 33 | 1017.8 |
| 20260502204517 | 62 | 74 | 1.7 | 5.2 | 0.00 | 0.00 | 0.00 | 33 | 1017.8 |
| 20260502203016 | 62 | 98 | 2.6 | 10.4 | 0.00 | 0.00 | 0.00 | 34 | 1018.0 |
| 20260502201527 | 64 | 323 | 3.5 | 8.7 | 0.00 | 0.00 | 0.00 | 33 | 1018.0 |
| 20260502200014 | 63 | 52 | 4.3 | 9.6 | 0.00 | 0.00 | 0.00 | 35 | 1018.3 |
| 20260502194511 | 59 | 67 | 6.1 | 10.4 | 0.00 | 0.00 | 0.00 | 39 | 1018.5 |
| 20260502193011 | 59 | 60 | 7.0 | 13.0 | 0.00 | 0.00 | 0.00 | 38 | 1018.7 |
| 20260502191509 | 59 | 70 | 5.2 | 11.3 | 0.00 | 0.00 | 0.00 | 39 | 1018.9 |
| 20260502190009 | 59 | 56 | 3.5 | 9.6 | 0.00 | 0.00 | 0.00 | 39 | 1018.9 |
| 20260502184510 | 59 | 53 | 7.0 | 11.3 | 0.00 | 0.00 | 0.00 | 39 | 1019.0 |
| 20260502183009 | 59 | 55 | 6.1 | 8.7 | 0.00 | 0.00 | 0.00 | 38 | 1019.0 |
| 20260502181508 | 59 | 51 | 3.5 | 8.7 | 0.00 | 0.00 | 0.00 | 38 | 1019.0 |
| 20260502163004 | 59 | 66 | 2.6 | 12.2 | 0.00 | 0.00 | 0.00 | 36 | 1019.0 |
| 20260502161503 | 60 | 57 | 9.6 | 13.9 | 0.00 | 0.00 | 0.00 | 36 | 1019.0 |
| 20260502151612 | 59 | 98 | 5.2 | 12.2 | 0.00 | 0.00 | 0.00 | 37 | 1019.0 |
| 20260502123031 | 46 | 10 | 4.3 | 7.0 | 0.00 | 0.00 | 0.00 | 51 | 1018.1 |
| 20260502121532 | 46 | 359 | 6.1 | 9.6 | 0.00 | 0.00 | 0.00 | 51 | 1018.1 |
| 20260502114522 | 47 | 296 | 1.7 | 8.7 | 0.00 | 0.00 | 0.00 | 50 | 1017.8 |
| 20260502113026 | 48 | 354 | 5.2 | 9.6 | 0.00 | 0.00 | 0.00 | 48 | 1017.7 |
| 20260502111521 | 48 | 340 | 7.8 | 12.2 | 0.00 | 0.00 | 0.00 | 47 | 1017.5 |
| 20260502110016 | 49 | 323 | 7.0 | 10.4 | 0.00 | 0.00 | 0.00 | 46 | 1017.2 |
| 20260502104516 | 49 | 346 | 7.0 | 10.4 | 0.00 | 0.00 | 0.00 | 45 | 1017.0 |
| 20260502103014 | 50 | 334 | 7.0 | 10.4 | 0.00 | 0.00 | 0.00 | 43 | 1016.7 |
| 20260502101507 | 49 | 328 | 6.1 | 8.7 | 0.00 | 0.00 | 0.00 | 44 | 1016.4 |
| 20260502091501 | 51 | 8 | 2.6 | 6.1 | 0.00 | 0.00 | 0.00 | 38 | 1015.8 |
| 20260502090122 | 51 | 43 | 5.2 | 11.3 | 0.00 | 0.00 | 0.00 | 38 | 1015.7 |
| 20260502070100 | 50 | 321 | 2.6 | 4.3 | 0.00 | 0.00 | 0.00 | 35 | 1015.1 |
| 20260502064546 | 51 | 340 | 3.5 | 5.2 | 0.00 | 0.00 | 0.00 | 34 | 1015.0 |
| 20260502063040 | 50 | 341 | 2.6 | 5.2 | 0.00 | 0.00 | 0.00 | 35 | 1015.1 |
| 20260502061539 | 50 | 336 | 3.5 | 6.1 | 0.00 | 0.00 | 0.00 | 35 | 1015.0 |
| 20260502060043 | 50 | 328 | 4.3 | 7.0 | 0.00 | 0.00 | 0.00 | 35 | 1015.0 |
| 20260502054552 | 53 | 314 | 6.1 | 9.6 | 0.00 | 0.00 | 0.00 | 32 | 1014.9 |
| 20260502053037 | 53 | 316 | 7.0 | 8.7 | 0.00 | 0.00 | 0.00 | 31 | 1014.9 |
| 20260502051538 | 55 | 294 | 7.0 | 9.6 | 0.00 | 0.00 | 0.00 | 28 | 1015.0 |
| 20260502050036 | 55 | 298 | 7.0 | 9.6 | 0.00 | 0.00 | 0.00 | 28 | 1014.9 |
| 20260502044536 | 54 | 297 | 6.1 | 9.6 | 0.00 | 0.00 | 0.00 | 28 | 1014.9 |
| 20260502043044 | 53 | 303 | 6.1 | 7.8 | 0.00 | 0.00 | 0.00 | 28 | 1014.8 |
| 20260502041553 | 55 | 304 | 7.0 | 9.6 | 0.00 | 0.00 | 0.00 | 26 | 1014.8 |
| 20260502040048 | 55 | 302 | 6.1 | 9.6 | 0.00 | 0.00 | 0.00 | 24 | 1014.8 |
| 20260502034533 | 56 | 292 | 7.0 | 10.4 | 0.00 | 0.00 | 0.00 | 23 | 1014.6 |